User: anonymous   Login
Location: Belvedere Heights
(33.9836°N, 117.3109°W)
Time: 09:27:34
(UTC+00:00)
Language:

XW-2D - Orbit

View from above orbital plane
View from above orbital plane
View from above satellite
View from above satellite

Ground track
Ground track

The orbit data is extracted from the following two-line orbital elements,

1 40907U 15049J   24147.17858111  .00044152  00000-0  83833-3 0  9993
2 40907  97.4728 165.7222 0006140  31.4594 328.7023 15.48145512481296
Epoch (UTC): 26 May 2024 04:17:09
Eccentricity: 0.0006140
inclination: 97.4728°
perigee height: 418 km
apogee height: 426 km
right ascension of ascending node: 165.7222°
argument of perigee: 31.4594°
revolutions per day: 15.48145512
mean anomaly at epoch: 328.7023°
orbit number at epoch: 48129

The dashed part of the orbit path shows where the satellite is in the earth's shadow,  

DLR